Weather History for Stephenville, TX

Change the Weather History Date:

Monday, August 18, 2014

  Actual Average Record
Temperature  
Mean Temperature 80 °F -  
Max Temperature 90 °F 94 °F 104 °F (1951)
Min Temperature 71 °F 70 °F 62 °F (1992)
Cooling Degree Days 15    
Growing Degree Days 30 (Base 50)    
Moisture  
Dew Point 65 °F    
Average Humidity 60    
Maximum Humidity 88    
Minimum Humidity 42    
Precipitation  
Precipitation 0.13 in - - ()
Sea Level Pressure  
Sea Level Pressure 29.98 in    
Wind  
Wind Speed 4 mph (SW)    
Max Wind Speed 12 mph    
Max Gust Speed 23 mph    
Visibility 10 miles    
Events      
Averages and records for this station are not official NWS values.
T = Trace of Precipitation, MM = Missing Value Source: NWS Daily Summary

Daily Weather History Graph

Daily Weather History Graph

Search for Another Location

Airport:

Trip Planner

Search our weather history database for the weather conditions in past years. The results will help you decide how hot, cold, wet, or windy it might be!

Date:

Astronomy

Aug. 18, 2014 Rise Set
Actual Time 6:58 AM CDT 8:13 PM CDT
Civil Twilight 6:33 AM CDT 8:39 PM CDT
Nautical Twilight 6:02 AM CDT 9:09 PM CDT
Astronomical Twilight 5:31 AM CDT 9:41 PM CDT
Moon 1:11 AM CDT (8/18) 3:12 PM CDT (8/18)
Length of Visible Light 14h 05m
Length of Day
13h 14m
Last Quarter, 38% of the Moon is Illuminated
Aug 18
Last Quarter
Aug 25
New
Sep 2
First Quarter
Sep 8
Full
Sep 15
Last Quarter

Hourly Weather History & Observations

Time (CDT) Temp. Heat Index Dew Point Humidity Pressure Visibility Wind Dir Wind Speed Gust Speed Precip Events Conditions
12:15 AM 78.8 °F - 61.9 °F 56% 29.99 in 10.0 mi SW 3.5 mph - N/A   Clear
12:35 AM 79.7 °F - 61.0 °F 53% 29.99 in 10.0 mi Calm Calm - N/A   Clear
12:55 AM 79.7 °F - 60.8 °F 52% 29.99 in 10.0 mi West 4.6 mph - N/A   Clear
1:15 AM 80.6 °F 81.4 °F 60.3 °F 50% 29.99 in 10.0 mi WSW 3.5 mph - N/A   Clear
1:35 AM 79.2 °F - 60.6 °F 53% 29.99 in 10.0 mi SSW 3.5 mph - N/A   Clear
1:55 AM 78.1 °F - 60.8 °F 55% 29.98 in 10.0 mi SSW 3.5 mph - N/A   Clear
2:15 AM 77.4 °F - 61.2 °F 57% 29.99 in 10.0 mi Calm Calm - N/A   Clear
2:35 AM 77.4 °F - 61.3 °F 58% 29.98 in 10.0 mi Calm Calm - N/A   Clear
2:55 AM 77.2 °F - 61.5 °F 58% 29.98 in 10.0 mi Calm Calm - N/A   Clear
3:15 AM 77.0 °F - 61.9 °F 59% 29.98 in 10.0 mi Calm Calm - N/A   Clear
3:35 AM 77.0 °F - 61.9 °F 59% 29.98 in 10.0 mi Calm Calm - N/A   Clear
3:55 AM 76.3 °F - 62.6 °F 62% 29.98 in 10.0 mi Calm Calm - N/A   Clear
4:15 AM 76.3 °F - 63.0 °F 63% 29.97 in 10.0 mi South 4.6 mph - N/A   Clear
4:35 AM 77.0 °F - 62.6 °F 61% 29.97 in 10.0 mi South 3.5 mph - N/A   Clear
4:55 AM 77.0 °F - 62.6 °F 61% 29.97 in 10.0 mi South 3.5 mph - N/A   Clear
5:15 AM 76.8 °F - 63.1 °F 63% 29.97 in 10.0 mi South 3.5 mph - N/A   Clear
5:35 AM 76.6 °F - 63.5 °F 64% 29.97 in 10.0 mi Calm Calm - N/A   Scattered Clouds
5:55 AM 77.0 °F - 64.4 °F 65% 29.98 in 10.0 mi South 3.5 mph - N/A   Mostly Cloudy
6:15 AM 76.8 °F - 64.9 °F 67% 29.98 in 10.0 mi South 4.6 mph - N/A   Overcast
6:35 AM 76.5 °F - 65.3 °F 68% 29.98 in 10.0 mi South 4.6 mph - N/A   Mostly Cloudy
6:55 AM 76.3 °F - 65.8 °F 70% 29.98 in 10.0 mi South 4.6 mph - N/A   Clear
7:15 AM 76.3 °F - 66.4 °F 71% 29.99 in 10.0 mi South 3.5 mph - N/A   Scattered Clouds
7:35 AM 76.6 °F - 67.1 °F 72% 30.00 in 10.0 mi South 4.6 mph - N/A   Scattered Clouds
7:55 AM 77.4 °F - 67.5 °F 71% 30.00 in 10.0 mi South 6.9 mph - N/A   Clear
8:15 AM 77.9 °F - 68.0 °F 71% 30.00 in 10.0 mi South 9.2 mph - N/A   Clear
8:35 AM 78.3 °F - 68.2 °F 71% 30.01 in 10.0 mi SSW 8.1 mph - N/A   Clear
8:55 AM 78.8 °F - 68.5 °F 71% 30.01 in 10.0 mi SSW 6.9 mph - N/A   Mostly Cloudy
9:15 AM 79.9 °F - 68.9 °F 69% 30.01 in 10.0 mi SSW 8.1 mph - N/A   Scattered Clouds
9:35 AM 82.0 °F 85.5 °F 69.3 °F 65% 30.02 in 10.0 mi SW 9.2 mph - N/A   Scattered Clouds
9:55 AM 82.6 °F 86.4 °F 69.6 °F 65% 30.01 in 10.0 mi SW 11.5 mph - N/A   Scattered Clouds
10:15 AM 82.2 °F 86.0 °F 69.8 °F 66% 30.02 in 10.0 mi SSW 11.5 mph 16.1 mph N/A   Clear
10:35 AM 81.9 °F 85.2 °F 69.3 °F 65% 30.02 in 10.0 mi SSW 8.1 mph - N/A   Clear
10:55 AM 81.7 °F 84.9 °F 68.9 °F 65% 30.02 in 10.0 mi SW 8.1 mph - N/A   Clear
11:15 AM 81.7 °F 84.9 °F 68.9 °F 65% 30.03 in 10.0 mi SW 5.8 mph - N/A   Clear
11:35 AM 81.9 °F 85.2 °F 68.9 °F 65% 30.04 in 10.0 mi SW 3.5 mph - N/A   Scattered Clouds
11:55 AM 81.7 °F 85.1 °F 69.3 °F 66% 30.04 in 10.0 mi West 4.6 mph - N/A   Scattered Clouds
12:15 PM 81.9 °F 85.2 °F 68.9 °F 65% 30.04 in 10.0 mi WNW 4.6 mph - N/A   Clear
12:35 PM 82.0 °F 85.1 °F 68.4 °F 63% 30.03 in 10.0 mi West 6.9 mph - N/A   Clear
12:55 PM 82.6 °F 84.1 °F 64.4 °F 54% 30.03 in 10.0 mi West 8.1 mph - N/A   Clear
1:15 PM 82.4 °F 84.1 °F 64.6 °F 55% 30.02 in 10.0 mi West 6.9 mph - N/A   Clear
1:35 PM 83.3 °F 84.8 °F 64.6 °F 53% 30.02 in 10.0 mi West 11.5 mph - N/A   Scattered Clouds
1:55 PM 83.1 °F 84.6 °F 64.6 °F 53% 30.02 in 10.0 mi West 9.2 mph - N/A   Scattered Clouds
2:15 PM 82.6 °F 84.3 °F 65.1 °F 55% 30.01 in 10.0 mi West 9.2 mph - N/A   Clear
2:35 PM 82.8 °F 84.5 °F 65.3 °F 55% 30.01 in 10.0 mi West 6.9 mph - N/A   Clear
2:55 PM 84.2 °F 86.1 °F 65.3 °F 53% 29.99 in 10.0 mi West 4.6 mph - N/A   Clear
3:15 PM 84.4 °F 86.3 °F 65.3 °F 53% 29.98 in 10.0 mi West 6.9 mph - N/A   Clear
3:35 PM 85.5 °F 87.4 °F 65.5 °F 51% 29.97 in 10.0 mi Calm Calm - N/A   Clear
3:55 PM 86.0 °F 88.2 °F 66.0 °F 51% 29.95 in 10.0 mi South 4.6 mph - N/A   Clear
4:15 PM 86.9 °F 89.3 °F 66.2 °F 50% 29.94 in 10.0 mi South 4.6 mph - N/A   Clear
4:35 PM 88.5 °F 90.8 °F 65.8 °F 47% 29.94 in 10.0 mi Calm Calm - N/A   Clear
4:55 PM 89.6 °F 91.5 °F 64.9 °F 44% 29.93 in 10.0 mi Calm Calm - N/A   Clear
5:15 PM 88.7 °F 91.1 °F 66.0 °F 47% 29.93 in 10.0 mi Calm Calm - N/A   Scattered Clouds
5:35 PM 89.2 °F 90.2 °F 63.5 °F 42% 29.93 in 10.0 mi Calm Calm - N/A   Clear
5:55 PM 89.2 °F 90.9 °F 64.8 °F 44% 29.93 in 10.0 mi South 4.6 mph - N/A   Clear
6:15 PM 87.6 °F 90.1 °F 66.0 °F 49% 29.93 in 10.0 mi ENE 4.6 mph - N/A   Clear
6:35 PM 87.6 °F 90.1 °F 66.2 °F 49% 29.93 in 10.0 mi ENE 4.6 mph - N/A   Clear
6:55 PM 86.9 °F 89.3 °F 66.4 °F 50% 29.92 in 10.0 mi NE 4.6 mph - N/A   Clear
7:15 PM 86.5 °F 89.0 °F 66.6 °F 51% 29.91 in 10.0 mi East 4.6 mph - N/A   Clear
7:35 PM 86.2 °F 88.8 °F 66.7 °F 52% 29.91 in 10.0 mi East 5.8 mph - N/A   Clear
7:55 PM 85.6 °F 88.5 °F 67.1 °F 54% 29.91 in 10.0 mi East 4.6 mph - N/A   Clear
8:15 PM 84.7 °F 87.4 °F 67.1 °F 55% 29.92 in 10.0 mi ENE 3.5 mph - N/A   Clear
8:35 PM 84.0 °F 87.0 °F 67.6 °F 58% 29.92 in 10.0 mi ENE 4.6 mph - N/A   Mostly Cloudy
8:55 PM 83.3 °F 86.4 °F 68.0 °F 60% 29.93 in 10.0 mi Calm Calm - N/A   Mostly Cloudy
9:15 PM 83.3 °F 85.9 °F 67.3 °F 58% 29.95 in 10.0 mi West 5.8 mph - N/A   Overcast
9:35 PM 82.4 °F 83.5 °F 63.0 °F 52% 29.95 in 10.0 mi West 5.8 mph - N/A   Scattered Clouds
9:55 PM 81.0 °F 82.1 °F 62.2 °F 53% 29.98 in 10.0 mi SSW 6.9 mph - N/A   Scattered Clouds
10:15 PM 75.4 °F - 64.6 °F 69% 30.01 in 7.0 mi South 11.5 mph 23.0 mph 0.03 in   Overcast
10:35 PM 72.0 °F - 67.5 °F 86% 29.99 in 4.0 mi NW 6.9 mph - 0.08 in   Overcast
10:55 PM 71.6 °F - 68.0 °F 88% 29.97 in 7.0 mi NNW 10.4 mph - N/A   Overcast
11:15 PM 71.6 °F - 67.1 °F 86% 29.97 in 10.0 mi NNE 4.6 mph - 0.02 in   Overcast
11:35 PM 71.8 °F - 67.5 °F 86% 29.97 in 10.0 mi North 4.6 mph - 0.03 in   Scattered Clouds
11:55 PM 71.8 °F - 67.3 °F 86% 29.97 in 10.0 mi WNW 5.8 mph - 0.05 in   Mostly Cloudy